TimeIST,TemperatureF,Dew PointF,Humidity,Sea Level PressureIn,VisibilityMPH,Wind Direction,Wind SpeedMPH,Gust SpeedMPH,PrecipitationIn,Events,Conditions,WindDirDegrees,DateUTC
12:00 AM,93.2,44.6,19,29.65,2.5,West,9.2,-,N/A,,Haze,270,2013-05-17 18:30:00
2:00 AM,89.6,42.8,20,29.62,2.5,WNW,5.8,-,N/A,,Haze,290,2013-05-17 20:30:00
2:30 AM,91.4,42.8,18,29.59,2.5,WNW,6.9,-,N/A,,Haze,290,2013-05-17 21:00:00
3:00 AM,93.2,46.4,20,29.59,2.5,WNW,9.2,-,N/A,,Haze,290,2013-05-17 21:30:00
4:00 AM,93.2,51.8,24,29.59,2.5,WNW,9.2,-,N/A,,Haze,300,2013-05-17 22:30:00
5:00 AM,93.2,53.6,26,29.59,2.5,WNW,12.7,-,N/A,,Haze,290,2013-05-17 23:30:00
5:30 AM,92,56,20,29.52,1,WNW,11.5,,,,Haze,290,2013-05-18 00:00:00
6:00 AM,89.6,55.4,31,29.62,2.5,NW,4.6,-,N/A,,Haze,320,2013-05-18 00:30:00
7:00 AM,91.4,57.2,31,29.65,2.5,NW,6.9,-,N/A,,Haze,310,2013-05-18 01:30:00
8:00 AM,95.0,59.0,30,29.68,2.5,WNW,12.7,-,N/A,,Haze,290,2013-05-18 02:30:00
8:30 AM,96,66,28,29.58,2,WNW,13.8,,,,Haze,290,2013-05-18 03:00:00
9:00 AM,98.6,59.0,27,29.68,2.5,WNW,16.1,-,N/A,,Haze,290,2013-05-18 03:30:00
10:00 AM,100.4,55.4,22,29.71,2.5,WNW,16.1,-,N/A,,Haze,290,2013-05-18 04:30:00
11:00 AM,104.0,51.8,17,29.68,2.5,WNW,12.7,-,N/A,,Haze,300,2013-05-18 05:30:00
12:00 PM,105.8,50.0,15,29.68,2.5,NW,9.2,-,N/A,,Haze,310,2013-05-18 06:30:00
1:00 PM,109.4,41.0,10,29.65,2.5,WNW,13.8,-,N/A,,Haze,300,2013-05-18 07:30:00
2:30 PM,110,42,5,29.52,2,WNW,9.2,,,,Haze,290,2013-05-18 09:00:00
3:00 PM,111.2,39.2,9,29.62,3.1,WNW,10.4,-,N/A,,Haze,300,2013-05-18 09:30:00
4:00 PM,111.2,35.6,8,29.59,3.1,WNW,12.7,-,N/A,,Haze,300,2013-05-18 10:30:00
5:00 PM,109.4,41.0,10,29.59,3.1,WNW,13.8,-,N/A,,Haze,290,2013-05-18 11:30:00
6:00 PM,109.4,33.8,7,29.59,3.1,WNW,10.4,-,N/A,,Haze,290,2013-05-18 12:30:00
7:00 PM,105.8,37.4,10,29.62,2.5,WNW,4.6,-,N/A,,Haze,300,2013-05-18 13:30:00
7:30 PM,102.2,39.2,11,29.62,2.5,WNW,5.8,-,N/A,,Haze,290,2013-05-18 14:00:00
8:00 PM,100.4,41.0,13,29.62,2.5,Calm,Calm,-,N/A,,Haze,0,2013-05-18 14:30:00
8:30 PM,101,43,7,29.52,2,Calm,Calm,,,,Haze,,2013-05-18 15:00:00
9:00 PM,100.4,42.8,14,29.62,2.5,Calm,Calm,-,N/A,,Haze,0,2013-05-18 15:30:00
10:00 PM,98.6,42.8,15,29.65,2.2,Variable,3.5,-,N/A,,Haze,0,2013-05-18 16:30:00
11:00 PM,96.8,37.4,13,29.65,2.2,West,8.1,-,N/A,,Haze,270,2013-05-18 17:30:00
11:30 PM,98,47,10,29.54,1,WNW,6.9,,,,Haze,290,2013-05-18 18:00:00